EDT,Max TemperatureF,Mean TemperatureF,Min TemperatureF,Max Dew PointF,MeanDew PointF,Min DewpointF,Max Humidity, Mean Humidity, Min Humidity, Max Sea Level PressureIn, Mean Sea Level PressureIn, Min Sea Level PressureIn, Max VisibilityMiles, Mean VisibilityMiles, Min VisibilityMiles, Max Wind SpeedMPH, Mean Wind SpeedMPH, Max Gust SpeedMPH,PrecipitationIn, CloudCover, Events, WindDirDegrees
2012-10-1,67,54,40,49,42,38,96,68,40,29.97,29.92,29.87,10,10,9,7,1,10,0.00,6,,48
2012-10-2,73,61,49,49,45,43,83,61,38,29.94,29.88,29.84,10,10,10,14,6,22,0.00,4,,67
2012-10-3,64,60,56,58,55,48,93,79,64,30.03,29.98,29.92,10,6,1,14,5,17,0.23,8,Rain,140
2012-10-4,77,67,57,58,56,50,93,67,40,30.06,30.03,29.97,10,5,2,23,12,29,0.29,7,Rain,212
2012-10-5,58,52,46,49,39,32,76,63,50,30.08,30.04,29.97,10,10,10,21,12,48,0.00,5,,255
2012-10-6,48,45,42,37,33,30,82,66,50,30.15,30.05,29.95,10,10,6,21,9,29,T,8,Rain,292
2012-10-7,50,42,33,38,35,29,86,70,53,30.16,30.13,30.10,10,10,10,14,4,16,T,7,Rain,315
2012-10-8,56,44,32,31,28,23,89,59,29,30.18,30.12,30.05,10,10,10,22,11,29,0.00,3,,189
2012-10-9,64,54,44,44,36,28,77,58,39,30.05,29.92,29.78,10,10,6,25,15,36,0.12,6,Rain,200
2012-10-10,46,41,36,41,34,25,93,69,45,30.17,29.97,29.85,10,9,5,23,9,30,0.19,7,Rain,264
2012-10-11,62,48,34,43,36,29,89,64,39,30.21,30.11,30.02,10,10,8,35,14,44,0.06,6,Rain,233
2012-10-12,52,43,33,37,29,21,89,61,32,30.48,30.39,30.24,10,10,10,14,6,18,0.00,1,,57
2012-10-13,64,49,33,62,44,25,100,82,64,30.35,30.03,29.83,10,5,2,17,11,25,0.95,7,Rain,168
2012-10-14,72,61,50,63,59,46,93,77,61,29.83,29.59,29.42,10,5,1,30,13,37,1.37,8,Rain-Thunderstorm,222
2012-10-15,50,45,39,46,41,35,86,76,65,29.99,29.82,29.62,10,10,8,21,11,29,0.01,8,Rain,298
2012-10-16,62,47,32,44,38,30,96,73,49,29.99,29.87,29.66,10,10,6,20,8,26,T,4,Rain,156
2012-10-17,73,65,57,55,50,43,93,69,44,29.64,29.55,29.44,10,10,5,31,16,40,0.13,5,Rain,174
2012-10-18,60,53,45,55,46,37,89,70,51,29.61,29.42,29.29,10,8,2,28,14,36,0.59,8,Rain,192
2012-10-19,51,48,44,46,43,41,100,86,71,29.60,29.55,29.51,10,9,4,15,7,18,0.21,8,Rain,157
2012-10-20,57,50,42,45,43,40,100,81,61,29.92,29.73,29.58,10,7,2,20,8,24,T,6,Rain,258
2012-10-21,62,50,37,47,40,36,100,72,43,30.09,30.04,29.94,10,7,2,13,5,20,0.00,1,,184
2012-10-22,72,58,44,61,53,41,97,79,61,30.05,29.99,29.92,10,7,1,22,5,24,1.23,6,Rain-Thunderstorm,141
2012-10-23,65,63,60,61,60,59,100,92,84,29.99,29.94,29.88,10,3,0,10,4,,0.37,8,Fog-Rain-Thunderstorm,166
2012-10-24,77,67,57,63,60,56,100,80,60,30.00,29.96,29.91,10,7,2,13,7,15,0.00,6,,167
2012-10-25,78,64,49,59,57,48,89,70,50,29.92,29.83,29.74,10,10,7,29,16,38,0.15,3,Rain,192
2012-10-26,51,45,39,46,35,29,93,70,46,30.31,30.19,29.94,10,9,3,22,11,29,0.17,7,Rain,317
2012-10-27,52,43,33,32,30,28,89,66,42,30.30,30.27,30.22,10,10,10,14,7,17,0.00,2,,345
2012-10-28,51,42,33,30,27,23,82,61,39,30.30,30.26,30.22,10,10,10,20,10,24,0.00,6,,13
2012-10-29,48,41,33,28,24,21,75,55,34,30.24,30.14,29.93,10,10,10,25,14,36,0.00,5,,347
2012-10-30,41,40,38,37,33,23,92,69,46,29.88,29.70,29.63,10,8,3,26,17,40,0.16,7,Rain,340
2012-10-31,43,41,39,38,36,33,86,81,76,29.76,29.69,29.65,10,9,3,18,13,25,0.09,8,Rain,314